CZ-6A R/B

Satellite information

Favourite Embed

Satellite Type and Status

ROCKET BODYIN ORBIT

Key statistics

Satellite CZ-6A R/B at a glance.

Uptime

325

Days in orbit

Revolutions

≈ 14.5

Per day

Orbit

LEO

Low Earth Orbit

Inclination

89.0

Latest

Satellite identification and parameters

Extended collection of information and parameters for CZ-6A R/B.

Object identification

Identified? True

Debris? False

Object name: CZ-6A R/B

International designator: 2025-016U

Object number (NORAD): 62803

Object ID (CCSDS): 62803

Country: PEOPLES REPUBLIC OF CHINA (PRC)

Current information (Y/N): Y

RCS size: LARGE

Orbital parameters

Period: 99.148 minutes

Inclination: 89.0086 deg

SMA: 7096.053 km

Apoapsis: 791.021 km

Periapsis: 644.815 km

RAAN: 98.9013 deg

Eccentricy: 0.0103019

Argument of periapsis: 87.3889 deg

Mean anomaly: 273.9107 deg

Mean motion: 14.52370779 rev/day

Mean motion (dot): 0.00000566 rev/day2

B* drag term: 0.00012536007 1/REarth

Two-line elements (TLE)

Creation date: Dec. 12, 2025, 10:14 a.m.

Reference frame: TEME

Reference center: EARTH

Epoch: Dec. 12, 2025, 7:03 a.m. UTC

TLE line 0: 0 CZ-6A R/B

TLE line 1: 1 62803U 25016U 25346.29387293 .00000566 00000-0 12536-3 0 9993

TLE line 2: 2 62803 89.0086 98.9013 0103019 87.3889 273.9107 14.52370779 46867

Live tracking on map

Real-time ground track for satellite CZ-6A R/B.

In-orbit conjunctions

There are no conjunctions computed for CZ-6A R/B, at the moment. Check back to stay up to date, as we update our databases every day.

Go to all conjunctions

Associated space launch

18 Low Earth Orbit communication satellites with Ku, Q and V band payloads for the G60 constellation operated by Shanghai Spacecom Satellite Technology (SSST) with funding backed by the Shanghai local government. Initial constellation will consist of 1296 satellites by 2027 with long term plans to expand it to 12000 satellites.

CZ-6A R/B was lifted into orbit during the mission ‘Long March 6A | G60 Polar Group 06’, on board a Long March 6A space rocket.

The launch took place on Jan. 23, 2025, 5:15 a.m. from Launch Complex 9A.

For more information about the launch, click the button.

Launch to space Long March 6A | G60 Polar Group 06
Long March 6A | G60 Polar Group 06

Agency: N/A

Status: Launch Successful

Launch date: Jan. 23, 2025, 5:15 a.m. UTC

Rocket: Long March 6A

Launch pad: Launch Complex 9A

Location: Taiyuan Satellite Launch Center, People's Republic of China

...

Latest news about this satellite

News about space launch
China launches fourth batch of Thousand Sails megaconstellation satellites

HELSINKI — China launched the fourth batch of 18 satellites for the Thousand Sails megaconstellation early Thursday using a Long March 6A rocket. The Long March 6A lifted off at […] The post China launches fourth batch of Thousand Sails megaconstellation...


Newsletter sign-up

Weekly statistics, charts and insights to help you stay on top of the space industry.